Epoch 2009 Mar. 30.0 TT = JDT 2454920.5 T 2009 Apr. 7.92113 TT MPC q 0.5997203 (2000.0) P Q z +0.0249668 Peri. 48.95658 +0.26039210 +0.59130508 +/-0.0000070 Node 105.96130 +0.45677051 -0.77190668 e 0.9850269 Incl. 127.45253 +0.85062133 +0.23349171
m1 = 11.5 + 5 logΔ + 20.0 log r(t - 5)